Погода в Старице

Погода в Старице : погода сейчас, прогноз погоды и архив. Всё, что Вы хотите узнать о погоде в Старице!

Поиск расширенной информации на нашем сайте:

Другие новости

Новости СМИ2

Главная страница сайта

Новости сайта

03.07.2017

Напоминаем, что на нашем специализированном сайте Метеоцентр.Азия вы можете получить высокодетализированные автоматические прогнозы погоды по пунктам России, СНГ и мира в авиационном формате (включающие направление и скорость ветра, видимость, явления погоды, количество и форму облачности, нижнюю и верхнюю границу облачности).


Погода в Старице - сегодня

Время (UTC), дата Ветер
(°,м/с) 
Видим.   Явления Облачность Т
(°С)
Тd
(°С)
f(%) Тe
(°С)
Pmin
(гПа)
dP
(гПа)
Po
(мм)
O2
(г/м3)
Тmin Tmax R s Состояние
почвы
21 17.07.18 020 (С) 10 км    4/4 600 м 
[Sc]
+21.3 +15.7 70 +32  1007.1  -0.3  739  273           
00 18.07.18 020 (С) 10 км    4/3 600 м верхняя 
[Sc|Ci fib]
+18.6 +15.1 80 +28  1006.7  -0.6  739  276           
18 18.07.18 050 (СВ) 5-10{14}  2000 м  ливневой дождь{гроза}  10/10 300 м кучево-дожд. 
[Cb cap]
+19 +16.9 88 +32  1005  -0.5  738  274    +23.8     
09 19.07.18 050 (СВ) 10 км    9/9 300 м 
[Sc]
+20.6 +16.9 79 +33  1005.1  738  273           
18 19.07.18 040 (СВ) 4{12}  10 км  {ливн. осадки}  9/9 300 м 
[Sc]
+20.1 +16.9 82 +33  1005.4  -0.1  738  273    +22.5  0.5     
21 19.07.18 030 (СВ) 10 км    9/9 300 м 
[Sc]
+19.3 +16.4 83 +32  1004.9  -0.5  738  274           
00 20.07.18 030 (СВ) 10 км    9/9 300 м 
[Sc]
+18.8 +16.6 87 +31  1004.2  -0.8  737  274           
06 20.07.18 040 (СВ) 4000 м  слаб. морось{дождь}  10/10 300 м 
[St]
+18.7 +17.3 92 +33  1003  -0.6  736  274  +18.6    0.5    влажная 
09 20.07.18 040 (СВ) 4000 м  слаб. морось{ливн. осадки}  10/10 200 м 
[St]
+19.8 +18.2 90 +35  1002.6  -0.3  736  272           
18 20.07.18 160 (Ю) 1{10}  10 км  {ливн. осадки}  8/3 600 м кучево-дожд., средняя, верхняя 
[Cb cap|Ac As|Ci ing]
+21.2 +19.2 88 +39  1003.9  1.4  737  271    +23.3     
21 20.07.18 160 (Ю) 10 км    3/3 2000 м средняя 
[Ac lent]
+19.6 +18 90 +36  1004.5  0.5  737  273           
00 21.07.18 120 (ЮВ) 10 км    ясно 
+19.2 +18.1 93 +36  1005  0.4  738  273           
06 21.07.18 120 (ЮВ) 1000 м  дымка{туман}  10/10 200 м 
[St]
+19.8 +18.5 92 +37  1006.5  0.6  739  273  +18.7        мокрая 
09 21.07.18 120 (ЮВ) 4000 м  дымка  10/10 300 м 
[St]
+21.1 +19 88 +38  1007.4  740  272           
12 21.07.18 090 (В) 10 км    9/9 300 м кучево-дожд. 
[Cb cap]
+24.3 +18.8 71 +41  1006.8  -0.4  739  269           
21 21.07.18 100 (В) 10 км  зарница  9/9 600 м кучево-дожд. 
[Cb cap]
+19.8 +18.3 91 +36  1008.8  0.5  741  274           
00 22.07.18 090 (В) 10 км    9/9 600 м 
[Sc]
+18.9 +17.5 92 +34  1008.7  -0.2  740  275           
03 22.07.18 080 (В) 4000 м  дымка  10/10 300 м 
[St]
+19 +17.6 92 +35  1009.4  0.7  741  275  +18.7    0.6     
09 22.07.18 100 (В) 10 км    10/10 300 м кучево-дожд. 
[Cb cap]
+22.3 +17.6 75 +36  1009.4  741  272           
15 22.07.18 080 (В) 10 км    6/5 600 м кучево-дожд., средняя 
[Cb cap|Ac trans]
+23.7 +17.9 70 +38  1008.4  -0.5  740  270      11     
18 22.07.18 070 (В) 2{10}  10 км  в посл. час ливневой дождь  10/4 600 м кучево-дожд., средняя 
[Cb cap|Ac As]
+19.8 +18 89 +36  1010.2  1.5  742  274    +24.3  12     
21 22.07.18 100 (В) 10 км    8/4 600 м кучево-дожд., средняя 
[Cb cap|Ac trans]
+19.6 +17.8 89 +35  1010.5  0.2  742  275           
00 23.07.18 060 (СВ) 10 км    3/0 верхняя 
[Ci fib]
+17.6 +16.4 93 +30  1010.6  0.1  742  277           
03 23.07.18 060 (СВ) 10 км    ясно 
+17.2 +15.7 91 +28  1011.4  0.8  742  278  +16.9    0.6     
09 23.07.18 090 (В) 10 км  {ливн. осадки}  10/10 300 м кучево-дожд. 
[Cb cap]
+18.8 +16.1 84 +30  1011.8  0.2  743  276           
Время (UTC), дата Ветер
(°,м/с) 
Видим.   Явления Облачность Т
(°С)
Тd
(°С)
f(%) Тe
(°С)
Pmin
(гПа)
dP
(гПа)
Po
(мм)
O2
(г/м3)
Тmin Tmax R s Состояние
почвы

Для получения пояснительной информации подведите курсор к названию столбца.

ПОГОДА в Старице - архив

Всё, что Вы хотите узнать о погоде в Старице - удобно и подробно!

Выберите нужную дату (начиная с 1 января 2015* года) и нажмите кнопку "Найти".
Будут отображены архивные сводки погоды по пункту Старица, начиная с указанной даты.


Отображать данные в формате CSV (для использования в таблицах Excel)


Внимание! Наш архив погоды предназначен исключительно для личного некоммерческого использования в познавательных целях. Если Вам необходимы официальные справки о состоянии погоды (для производственных, юридических, коммерческих и т.п. целей), обращайтесь в органы Росгидромета.

*Примечание: данная дата относится к архиву по метеостанциям СССР (Россия, СНГ, Балтия).
Архив по метеостанциям Зарубежной Европы и Азии (кроме Китая) хранится 10 дней, по другим регионам земного шара (Китай, Африка, Америка, Австралия, Океания) - 1 день.

Старица - район местоположения метеостанции


Название, широта, долгота, высота метеостанции:
Старица 56.5°ш. 34.9°д. 181 м над ур. моря [Российская Федерация]

Дополнительная информация

В oтличие oт бoльшинства пoгoдных сайтoв мы публикуем пoдрoбную метеoинфoрмацию в детальнoм прoфессиoнальнoм фoрмате.

Характеристики температуры и влажнoсти вoздуха измеряются на высoте 2 м в тени вдали oт зданий и деревьев.
Скoрoсть ветра измеряется на высoте 10 м (на урoвне рoста челoвека скoрoсть ветра ниже в 1.5-2 раза). Если метеoстанция нахoдится в гoрoде или в лесу, тo скoрoсть ветра занижена на 2-4 м/с пo сравнению с oткрытым местoм. Скoрoсть ветра над акватoриями крупных рек и oзёр, а также на вершинах хoлмoв на 2-5 м/с выше, чем в oбычных услoвиях.
Атмoсфернoе давление в разных тoчках местнoсти мoжет значительнo oтличаться oт давления на метеoстанции, в зависимoсти oт услoвий рельефа (при пoдъёме на 10 м давление пoнижается примернo на 1 мм рт.ст.).